Find Starlink 30516

NORAD ID: 57984 Int'l Des: 2023-151 Owner: SPXS Country: US Constellation: starlink operational
LEOCIRCULAR

Live-Position

3D-Globus wird geladen...

Über Starlink 30516

Beschreibung wird geladen...

Nächste Überflüge

Passes for default location (London). Set your location on the main map for personalized predictions.

Höhenverlauf

Loading altitude history...

Zweizeiliger Elementsatz

1 57984U 23151W 26123.81049341 .00005765 00000-0 21870-3 0 9993
2 57984 43.0048 42.7760 0001129 259.1897 100.8828 15.27605498143983
Epoch: 3. Mai 2026 • Age: 6 hours

Aktueller Status

Höhe 482.6 km
Geschwindigkeit 7.63 km/s
Subsatellitenpunkt 17.11°N, 170.87°E
Startdatum 30. Sept. 2023
Alter 2.5 years
Typ internet

Technische Details

Klassifizierung Payload
Masse 730.00 kg
Trockenmasse 700.00 kg
Gesamtmasse 730.00 kg
Länge 0.30 m
Durchmesser 4.10 m
Spannweite 29.00 m
Form Box + pan
Hersteller SPXS
Bus-Typ Starlink V2M
Phasenstatus In Orbit
Besitzer/Staat SPXS/US

Most Searched